9A3XK-13 Weather Reports


time (UTC)temp
C
wind
direction
speed
KPH
gust
KPH
rain 1hr
cm
rain 24hr
cm
rain mn
cm
humidity
%
barometer
mb
20260507221517 14 225 1.6 3.2 0.00 0.03 0.00 83 1014.9
20260507221015 14 0.0 3.2 0.00 0.03 0.00 83 1014.7
20260507220517 14 225 1.6 3.2 0.00 0.03 0.00 83 1014.6
20260507220017 14 225 1.6 3.2 0.00 0.03 0.03 83 1014.5
20260507215517 15 0.0 3.2 0.00 0.03 0.03 83 1014.4
20260507215016 15 0.0 3.2 0.00 0.03 0.03 83 1014.5
20260507214517 15 225 1.6 3.2 0.00 0.03 0.03 83 1014.5
20260507214016 15 225 3.2 4.8 0.00 0.03 0.03 83 1014.5
20260507213516 15 225 3.2 4.8 0.00 0.03 0.03 83 1014.4
20260507213016 15 225 3.2 8.0 0.00 0.03 0.03 83 1014.4
20260507212516 15 203 4.8 8.0 0.00 0.03 0.03 83 1014.4
20260507212016 15 225 6.4 9.7 0.00 0.05 0.03 83 1014.3
20260507211516 15 203 8.0 14.5 0.00 0.05 0.03 83 1014.3
20260507211016 15 203 8.0 14.5 0.00 0.05 0.03 83 1014.3
20260507210516 15 203 6.4 14.5 0.00 0.05 0.03 83 1014.3
20260507210016 15 203 8.0 14.5 0.00 0.05 0.03 83 1014.3
20260507205517 15 203 6.4 12.9 0.00 0.05 0.03 83 1014.3
20260507205017 15 225 6.4 14.5 0.00 0.05 0.03 83 1014.2
20260507204516 15 225 4.8 11.3 0.00 0.05 0.03 83 1014.3
20260507204016 15 203 6.4 12.9 0.00 0.05 0.03 83 1014.3
20260507203516 15 203 6.4 12.9 0.00 0.08 0.03 83 1014.2
20260507203016 15 203 6.4 12.9 0.00 0.08 0.03 83 1014.1
20260507202516 15 203 4.8 9.7 0.00 0.08 0.03 83 1014.1
20260507202016 15 203 4.8 8.0 0.00 0.10 0.03 83 1014.1
20260507201516 16 203 4.8 8.0 0.00 0.10 0.03 83 1014.1
20260507201016 16 225 4.8 8.0 0.00 0.10 0.03 83 1014.0
20260507200516 16 203 4.8 8.0 0.00 0.13 0.03 82 1013.9
20260507200016 16 225 4.8 8.0 0.00 0.13 0.03 82 1013.9
20260507195516 16 225 4.8 8.0 0.00 0.13 0.03 82 1013.9
20260507195016 16 225 4.8 9.7 0.00 0.13 0.03 82 1013.9
20260507194516 16 225 4.8 11.3 0.00 0.15 0.03 82 1013.8
20260507194016 16 203 4.8 8.0 0.00 0.15 0.03 82 1013.8
20260507193516 16 225 4.8 8.0 0.00 0.15 0.03 82 1013.8
20260507193016 16 225 4.8 8.0 0.00 0.18 0.03 82 1013.8
20260507192516 16 225 4.8 9.7 0.00 0.23 0.03 82 1013.6
20260507192016 16 225 6.4 11.3 0.00 0.23 0.03 82 1013.6
20260507191516 16 225 4.8 8.0 0.00 0.25 0.03 82 1013.5
20260507191016 16 225 4.8 6.4 0.00 0.28 0.03 82 1013.6
20260507190516 16 225 4.8 8.0 0.00 0.30 0.03 82 1013.6
20260507190016 16 225 3.2 6.4 0.00 0.30 0.03 82 1013.6
20260507185516 16 225 3.2 6.4 0.00 0.33 0.03 81 1013.5
20260507185016 16 225 4.8 8.0 0.00 0.33 0.03 81 1013.5
20260507184516 16 248 4.8 8.0 0.00 0.33 0.03 81 1013.4
20260507184016 16 225 4.8 6.4 0.00 0.33 0.03 81 1013.3
20260507183516 16 225 4.8 8.0 0.00 0.33 0.03 81 1013.3
20260507183016 16 225 4.8 6.4 0.00 0.33 0.03 81 1013.2
20260507182516 16 225 4.8 6.4 0.00 0.33 0.03 81 1013.2
20260507182016 16 225 4.8 9.7 0.00 0.33 0.03 80 1013.2
20260507181516 17 203 4.8 8.0 0.00 0.33 0.03 80 1013.2
20260507181016 17 203 4.8 8.0 0.00 0.36 0.03 80 1013.1
20260507180516 17 225 4.8 9.7 0.00 0.36 0.03 79 1013.0
20260507180016 17 225 6.4 11.3 0.00 0.36 0.03 79 1013.0
20260507175516 17 225 6.4 9.7 0.00 0.36 0.03 78 1013.0
20260507175016 17 225 4.8 9.7 0.00 0.38 0.03 78 1013.1
20260507174516 17 203 4.8 9.7 0.00 0.38 0.03 78 1013.0
20260507174016 17 225 4.8 11.3 0.00 0.38 0.03 77 1013.0
20260507173516 17 225 6.4 12.9 0.00 0.38 0.03 77 1013.0
20260507173016 17 203 6.4 12.9 0.00 0.38 0.03 76 1013.0
20260507172516 18 225 8.0 14.5 0.00 0.38 0.03 76 1013.0
20260507172016 18 225 6.4 12.9 0.00 0.38 0.03 75 1013.2
20260507171516 18 225 8.0 14.5 0.00 0.38 0.03 75 1013.2
20260507171016 18 225 8.0 14.5 0.00 0.38 0.03 74 1013.1
20260507170516 18 225 8.0 14.5 0.00 0.38 0.03 74 1013.1
20260507170016 18 225 6.4 12.9 0.00 0.38 0.03 75 1013.1
20260507165516 18 225 8.0 16.1 0.00 0.38 0.03 74 1013.1
20260507165017 18 225 8.0 12.9 0.00 0.38 0.03 74 1013.2
20260507164516 18 225 4.8 9.7 0.00 0.38 0.03 73 1013.1
20260507164016 18 225 6.4 11.3 0.00 0.38 0.03 73 1013.1
20260507163516 18 248 4.8 9.7 0.00 0.38 0.03 73 1013.1
20260507163016 18 248 6.4 9.7 0.00 0.38 0.03 72 1013.1
20260507162516 18 270 4.8 9.7 0.00 0.38 0.03 72 1013.1
20260507162015 18 270 3.2 8.0 0.00 0.38 0.03 72 1013.0
20260507161515 18 293 3.2 8.0 0.00 0.38 0.03 72 1013.1
20260507161015 18 270 4.8 9.7 0.00 0.38 0.03 71 1013.1
20260507160515 19 270 4.8 9.7 0.00 0.38 0.03 71 1013.0
20260507160015 19 248 6.4 11.3 0.00 0.38 0.03 70 1013.0
20260507155516 19 248 6.4 11.3 0.00 0.38 0.03 70 1013.0
20260507155016 19 270 4.8 9.7 0.00 0.38 0.03 72 1013.0
20260507154515 19 270 3.2 6.4 0.00 0.38 0.03 71 1013.0
20260507154015 19 270 4.8 8.0 0.00 0.38 0.03 71 1013.0
20260507153515 19 248 4.8 8.0 0.00 0.38 0.03 71 1013.1
20260507153016 19 315 6.4 11.3 0.00 0.38 0.03 71 1013.0
20260507152516 19 293 4.8 9.7 0.00 0.38 0.03 71 1013.1
20260507152015 19 293 4.8 11.3 0.00 0.38 0.03 71 1013.0
20260507151516 19 293 6.4 12.9 0.00 0.38 0.03 71 1013.1
20260507151016 19 293 4.8 11.3 0.00 0.38 0.03 71 1013.1
20260507150515 19 315 6.4 12.9 0.00 0.38 0.03 71 1013.0
20260507150015 19 315 6.4 11.3 0.00 0.38 0.03 71 1013.1
20260507145515 19 293 6.4 12.9 0.00 0.38 0.03 71 1013.1
20260507145015 19 293 8.0 12.9 0.00 0.38 0.03 71 1013.1
20260507144515 19 293 9.7 14.5 0.00 0.38 0.03 70 1013.1
20260507144016 19 293 8.0 12.9 0.00 0.38 0.03 69 1013.0
20260507143515 19 293 9.7 17.7 0.00 0.38 0.03 69 1013.1
20260507143016 19 293 9.7 17.7 0.00 0.38 0.03 70 1013.1
20260507142515 19 293 6.4 16.1 0.00 0.38 0.03 72 1013.2
20260507142015 19 270 6.4 14.5 0.00 0.38 0.03 72 1013.1
20260507141515 19 270 6.4 12.9 0.00 0.38 0.03 72 1013.1
20260507141015 19 270 4.8 8.0 0.00 0.38 0.03 71 1013.2
20260507140515 19 270 6.4 11.3 0.00 0.38 0.03 71 1013.2
20260507140015 19 270 6.4 14.5 0.00 0.38 0.03 71 1013.2
20260507135515 19 270 4.8 11.3 0.00 0.38 0.03 72 1013.2
20260507135015 19 248 8.0 12.9 0.00 0.38 0.03 72 1013.3
20260507134516 19 270 6.4 12.9 0.00 0.38 0.03 71 1013.3
20260507134016 19 270 8.0 14.5 0.00 0.38 0.03 71 1013.3
20260507133515 19 270 6.4 11.3 0.00 0.38 0.03 72 1013.3
20260507133015 19 270 6.4 12.9 0.00 0.38 0.03 72 1013.2
20260507132515 19 270 6.4 11.3 0.00 0.38 0.03 71 1013.3
20260507132015 20 270 8.0 14.5 0.00 0.38 0.03 71 1013.4
20260507131515 20 293 6.4 11.3 0.00 0.38 0.03 70 1013.5
20260507131015 20 293 6.4 11.3 0.00 0.38 0.03 70 1013.5
20260507130515 20 293 8.0 14.5 0.00 0.38 0.03 69 1013.5
20260507130015 20 270 4.8 9.7 0.00 0.38 0.03 70 1013.6
20260507125515 20 270 6.4 14.5 0.00 0.38 0.03 69 1013.6
20260507125015 20 293 4.8 9.7 0.00 0.38 0.03 69 1013.6
20260507124515 20 293 6.4 11.3 0.00 0.38 0.03 68 1013.6
20260507124016 20 293 4.8 11.3 0.00 0.38 0.03 67 1013.6
20260507123515 20 270 6.4 14.5 0.00 0.38 0.03 67 1013.7
20260507123015 20 270 6.4 14.5 0.00 0.38 0.03 65 1013.6
20260507122515 20 293 4.8 11.3 0.00 0.38 0.03 65 1013.6
20260507122015 20 293 4.8 11.3 0.00 0.38 0.03 64 1013.6
20260507121515 20 293 6.4 11.3 0.00 0.38 0.03 64 1013.5
20260507121015 20 248 4.8 11.3 0.00 0.38 0.03 62 1013.6
20260507120517 20 270 3.2 6.4 0.00 0.38 0.03 63 1013.6
20260507120017 20 293 6.4 9.7 0.00 0.38 0.03 63 1013.6
20260507115517 20 270 6.4 12.9 0.00 0.38 0.03 64 1013.6
20260507115017 20 270 3.2 8.0 0.00 0.38 0.03 66 1013.6
20260507114517 20 293 4.8 8.0 0.00 0.38 0.03 65 1013.5
20260507114015 20 270 3.2 8.0 0.00 0.38 0.03 66 1013.6
20260507113515 20 270 3.2 6.4 0.00 0.38 0.03 66 1013.5
20260507113017 20 270 3.2 8.0 0.00 0.38 0.03 66 1013.6
20260507112517 20 270 4.8 8.0 0.00 0.38 0.03 66 1013.6
20260507112017 20 270 4.8 11.3 0.00 0.38 0.03 69 1013.6
20260507111517 20 293 6.4 12.9 0.00 0.38 0.03 69 1013.6
20260507111017 20 248 6.4 12.9 0.00 0.38 0.03 69 1013.6
20260507110517 20 225 3.2 8.0 0.00 0.38 0.03 69 1013.7
20260507110017 20 248 6.4 11.3 0.00 0.38 0.03 68 1013.6
20260507105517 20 0.0 6.4 0.00 0.38 0.03 69 1013.6
20260507105017 20 248 1.6 6.4 0.00 0.38 0.03 68 1013.7
20260507104517 20 270 4.8 8.0 0.00 0.38 0.03 69 1013.7
20260507104017 20 293 6.4 11.3 0.00 0.38 0.03 70 1013.7
20260507103517 20 270 4.8 9.7 0.00 0.38 0.03 69 1013.8
20260507103017 20 293 3.2 8.0 0.00 0.38 0.03 69 1013.8
20260507102517 20 293 4.8 6.4 0.00 0.38 0.03 68 1013.8
20260507102017 20 293 3.2 8.0 0.00 0.38 0.03 69 1013.9
20260507101517 20 270 3.2 8.0 0.00 0.38 0.03 69 1013.9
20260507101017 19 225 3.2 6.4 0.00 0.38 0.03 69 1014.0
20260507100517 19 248 4.8 9.7 0.00 0.38 0.03 70 1014.0
20260507100017 19 293 3.2 6.4 0.00 0.38 0.03 70 1013.9
20260507095516 19 270 4.8 11.3 0.00 0.38 0.03 71 1014.0
20260507095017 18 293 4.8 6.4 0.00 0.38 0.03 69 1014.0
20260507094517 18 270 4.8 9.7 0.00 0.38 0.03 69 1014.0
20260507094017 18 293 3.2 6.4 0.00 0.38 0.03 72 1014.1
20260507093517 18 338 1.6 4.8 0.00 0.38 0.03 75 1013.9
20260507093016 18 315 1.6 4.8 0.00 0.38 0.03 77 1013.9
20260507092517 18 338 1.6 4.8 0.00 0.38 0.03 79 1013.9
20260507092017 17 0.0 1.6 0.00 0.38 0.03 80 1013.9
20260507091517 17 0.0 1.6 0.00 0.38 0.03 80 1014.0
20260507091017 17 338 1.6 3.2 0.00 0.38 0.03 80 1014.0
20260507090517 17 338 1.6 4.8 0.00 0.38 0.03 81 1014.0
20260507090017 17 0.0 1.6 0.00 0.38 0.03 82 1014.0
20260507085516 17 0.0 1.6 0.00 0.38 0.03 82 1014.0
20260507085017 16 338 1.6 4.8 0.00 0.38 0.03 82 1013.9
20260507084516 16 0.0 3.2 0.00 0.38 0.03 82 1013.9
20260507084016 16 0.0 1.6 0.00 0.38 0.03 82 1013.9
20260507083517 16 0.0 1.6 0.00 0.38 0.03 82 1013.9
20260507083017 16 270 1.6 3.2 0.00 0.38 0.03 82 1014.0
20260507082516 16 270 1.6 3.2 0.00 0.38 0.03 82 1013.9
20260507082016 16 180 1.6 4.8 0.00 0.38 0.03 82 1013.9
20260507081517 16 180 1.6 3.2 0.00 0.38 0.03 82 1013.9
20260507081016 16 180 1.6 4.8 0.00 0.38 0.03 82 1013.8
20260507080516 16 0.0 3.2 0.00 0.38 0.03 82 1013.7
20260507080017 16 0.0 3.2 0.00 0.38 0.03 82 1013.7
20260507075517 16 0.0 3.2 0.00 0.38 0.03 82 1013.7
20260507075016 16 135 1.6 4.8 0.00 0.38 0.03 82 1013.8
20260507074516 16 135 3.2 4.8 0.00 0.38 0.03 83 1013.8
20260507074016 16 0.0 3.2 0.00 0.38 0.03 83 1013.7
20260507073517 16 0.0 0.0 0.00 0.38 0.03 83 1013.6
20260507073017 16 0.0 0.0 0.00 0.38 0.03 83 1013.5
20260507072516 16 0.0 0.0 0.03 0.38 0.03 83 1013.5
20260507072016 16 180 1.6 4.8 0.03 0.38 0.03 83 1013.5
20260507071516 16 180 1.6 3.2 0.03 0.38 0.03 83 1013.5
20260507071016 15 180 1.6 3.2 0.03 0.38 0.03 83 1013.4
20260507070516 15 23 1.6 4.8 0.03 0.38 0.03 83 1013.5
20260507070016 15 23 1.6 4.8 0.03 0.38 0.03 83 1013.4
20260507065516 15 23 1.6 4.8 0.03 0.38 0.03 83 1013.3
20260507065016 15 0 3.2 6.4 0.03 0.38 0.03 83 1013.3
20260507064516 15 23 1.6 6.4 0.03 0.38 0.03 83 1013.2
20260507064016 15 23 3.2 8.0 0.03 0.38 0.03 83 1013.2
20260507063516 15 338 1.6 6.4 0.03 0.38 0.03 83 1013.3
20260507063016 15 338 3.2 6.4 0.03 0.38 0.03 83 1013.3
20260507062516 15 0 1.6 4.8 0.00 0.36 0.00 82 1013.3
20260507062016 15 338 3.2 6.4 0.00 0.36 0.00 82 1013.3
20260507061516 15 315 3.2 4.8 0.00 0.36 0.00 82 1013.3
20260507061017 15 315 1.6 4.8 0.00 0.36 0.00 82 1013.2
20260507060516 15 203 1.6 3.2 0.00 0.36 0.00 82 1013.2
20260507060016 15 203 1.6 1.6 0.00 0.36 0.00 82 1013.2
20260507055517 15 0.0 1.6 0.00 0.36 0.00 82 1013.2
20260507055016 15 0.0 1.6 0.00 0.36 0.00 82 1013.1
20260507054516 15 0.0 0.0 0.00 0.36 0.00 82 1013.0
20260507054016 15 0.0 1.6 0.00 0.36 0.00 82 1012.9
20260507053516 15 203 1.6 3.2 0.00 0.36 0.00 82 1012.9
20260507053016 15 0.0 1.6 0.00 0.36 0.00 82 1012.9
20260507052516 15 0.0 1.6 0.00 0.36 0.00 82 1012.9
20260507052016 15 0.0 1.6 0.00 0.36 0.00 82 1012.9
20260507051517 15 203 1.6 4.8 0.00 0.36 0.00 82 1012.8
20260507051016 15 203 3.2 6.4 0.00 0.36 0.00 82 1012.8
20260507050516 15 180 1.6 4.8 0.00 0.36 0.00 82 1012.8
20260507050016 15 180 3.2 6.4 0.00 0.36 0.00 82 1012.7
20260507045516 15 158 3.2 6.4 0.00 0.36 0.00 82 1012.6
20260507045016 15 203 3.2 6.4 0.00 0.36 0.00 82 1012.6
20260507044516 15 203 3.2 8.0 0.00 0.36 0.00 82 1012.5
20260507044016 15 203 3.2 6.4 0.00 0.36 0.00 82 1012.5
20260507043516 15 203 4.8 8.0 0.00 0.36 0.00 82 1012.3
20260507043016 15 203 4.8 8.0 0.00 0.36 0.00 82 1012.2
20260507042516 15 203 4.8 6.4 0.00 0.36 0.00 82 1012.2
20260507042016 15 203 3.2 6.4 0.00 0.36 0.00 82 1012.1
20260507041516 15 180 3.2 6.4 0.00 0.36 0.00 82 1012.1
20260507041016 15 180 3.2 6.4 0.00 0.36 0.00 82 1012.0
20260507040516 15 180 1.6 6.4 0.00 0.36 0.00 82 1012.0
20260507040016 15 158 1.6 8.0 0.00 0.36 0.00 82 1012.0
20260507035516 15 158 3.2 11.3 0.00 0.36 0.00 82 1012.0
20260507035016 15 180 3.2 11.3 0.00 0.36 0.00 82 1011.9
20260507034516 15 180 4.8 12.9 0.00 0.36 0.00 82 1011.9
20260507034016 15 180 4.8 11.3 0.00 0.36 0.00 81 1011.8
20260507033516 15 158 4.8 11.3 0.00 0.36 0.00 81 1011.8
20260507033016 15 180 4.8 11.3 0.00 0.36 0.00 81 1011.8
20260507032515 15 158 3.2 8.0 0.00 0.36 0.00 81 1011.7
20260507032016 15 158 3.2 8.0 0.00 0.36 0.00 80 1011.7
20260507031516 15 180 3.2 9.7 0.00 0.36 0.00 80 1011.6
20260507031016 15 158 3.2 8.0 0.00 0.36 0.00 80 1011.6
20260507030515 15 180 3.2 8.0 0.00 0.36 0.00 80 1011.6
20260507030016 15 158 1.6 6.4 0.00 0.36 0.00 80 1011.6
20260507025516 15 158 3.2 8.0 0.00 0.36 0.00 80 1011.5
20260507025015 15 158 3.2 8.0 0.00 0.36 0.00 80 1011.6
20260507024517 15 180 3.2 6.4 0.00 0.36 0.00 79 1011.6
20260507024016 15 180 3.2 6.4 0.00 0.36 0.00 79 1011.6
20260507023516 15 158 3.2 8.0 0.00 0.36 0.00 79 1011.5
20260507023015 15 158 1.6 4.8 0.00 0.36 0.00 78 1011.4
20260507022516 15 158 3.2 6.4 0.00 0.36 0.00 78 1011.3
20260507022016 15 158 3.2 6.4 0.00 0.36 0.00 78 1011.3
20260507021516 15 158 3.2 4.8 0.00 0.36 0.00 78 1011.4
20260507021016 15 180 3.2 6.4 0.00 0.36 0.00 78 1011.4
20260507020516 15 0.0 3.2 0.00 0.36 0.00 78 1011.4
20260507020015 15 180 1.6 4.8 0.00 0.36 0.00 78 1011.5
20260507015515 15 180 1.6 4.8 0.00 0.36 0.00 78 1011.5
20260507015015 15 180 3.2 8.0 0.00 0.36 0.00 78 1011.5
20260507014516 15 158 3.2 8.0 0.00 0.36 0.00 78 1011.5
20260507014016 15 158 3.2 6.4 0.00 0.36 0.00 78 1011.4
20260507013515 15 180 3.2 8.0 0.00 0.36 0.00 78 1011.3
20260507013016 15 180 4.8 11.3 0.00 0.36 0.00 78 1011.4
20260507012515 15 180 6.4 12.9 0.00 0.36 0.00 78 1011.3
20260507012015 15 180 3.2 6.4 0.00 0.36 0.00 77 1011.4
20260507011516 15 180 3.2 6.4 0.00 0.36 0.00 77 1011.3
20260507011015 15 180 3.2 9.7 0.00 0.36 0.00 77 1011.3
20260507010517 15 180 3.2 8.0 0.00 0.36 0.00 77 1011.2
20260507010016 15 180 4.8 8.0 0.00 0.36 0.00 77 1011.3
20260507005515 15 180 3.2 8.0 0.00 0.36 0.00 77 1011.3
20260507005016 15 180 3.2 8.0 0.00 0.36 0.00 77 1011.3
20260507004515 15 180 4.8 8.0 0.00 0.36 0.00 77 1011.3
20260507004015 15 180 3.2 9.7 0.00 0.36 0.00 77 1011.3
20260507003515 15 180 3.2 8.0 0.00 0.36 0.00 77 1011.2
20260507003015 15 180 3.2 8.0 0.00 0.36 0.00 77 1011.1
20260507002515 15 180 3.2 9.7 0.00 0.36 0.00 77 1011.1
20260507002016 15 158 4.8 11.3 0.00 0.36 0.00 77 1011.2
20260507001515 15 158 6.4 12.9 0.00 0.36 0.00 77 1011.2
20260507001015 15 158 6.4 11.3 0.00 0.36 0.00 77 1011.3
20260507000515 15 180 3.2 6.4 0.00 0.36 0.00 77 1011.4
20260507000016 15 180 3.2 8.0 0.00 0.36 0.00 77 1011.3
20260506235515 15 158 3.2 6.4 0.00 0.36 0.00 77 1011.4
20260506235016 15 180 3.2 6.4 0.00 0.36 0.00 77 1011.3
20260506234515 15 203 3.2 8.0 0.00 0.36 0.00 77 1011.3
20260506234016 15 203 4.8 9.7 0.00 0.36 0.00 78 1011.3
20260506233515 15 203 4.8 9.7 0.00 0.36 0.00 78 1011.3
20260506233015 15 203 6.4 12.9 0.00 0.36 0.00 78 1011.3
20260506232515 15 203 4.8 9.7 0.00 0.36 0.00 77 1011.3
20260506232015 15 180 4.8 12.9 0.00 0.36 0.00 77 1011.3
20260506231515 15 180 6.4 12.9 0.00 0.36 0.00 77 1011.3
20260506231015 15 203 6.4 9.7 0.00 0.36 0.00 77 1011.2
20260506230515 15 203 4.8 9.7 0.00 0.36 0.00 77 1011.2
20260506230015 15 203 3.2 6.4 0.00 0.36 0.00 77 1011.2
20260506225516 15 203 4.8 8.0 0.00 0.36 0.00 77 1011.2
20260506225015 15 225 4.8 8.0 0.00 0.36 0.00 77 1011.2
20260506224517 15 225 3.2 4.8 0.00 0.36 0.00 77 1011.2
20260506224015 15 248 1.6 4.8 0.00 0.36 0.00 77 1011.2
20260506223517 15 248 1.6 4.8 0.00 0.36 0.00 78 1011.3
20260506223017 15 248 3.2 6.4 0.00 0.36 0.00 78 1011.3
20260506222517 15 225 1.6 4.8 0.00 0.36 0.00 78 1011.3
20260506222015 15 248 3.2 8.0 0.03 0.36 0.00 78 1011.3